#timestamp,LO_Frequency,Hit,StdDev 
1609005615.1,286046997.0,N
1609005616.0,286046997.0,N
1609005635.8,286046997.4,N
1609005655.6,286046997.6,N
1609005675.5,286046994.9,N
1609005695.3,286046995.3,N
1609005715.1,286046995.1,N
1609005735.9,286046995.8,N
1609005755.7,286046995.6,N
1609005775.5,286046995.6,N
1609005795.4,286046996.3,N
1609005815.2,286046996.3,N
1609005835.0,286046993.6,N
1609005835.9,286046993.6,N
1609005855.8,286046994.3,N
1609005875.6,286046994.5,N
1609005895.4,286046994.1,N
1609005915.3,286046992.0,N
1609005935.1,286046992.0,N
1609005936.0,286046992.0,N
1609005955.8,286046991.8,N
1609005975.7,286046993.0,N
1609005995.5,286046992.5,N
1609006015.3,286046993.1,N
1609006035.2,286046990.4,Y
1609006055.9,286046998.0,P
1609006075.7,286046995.4,P
1609006095.6,286046995.4,P
1609006115.4,286046996.1,Y
1609006135.2,286046999.3,P
1609006155.1,286046996.6,N
1609006156.0,286046996.6,N
1609006175.8,286046996.9,N
1609006195.6,286046998.9,N
1609006215.5,286046999.5,N
1609006235.3,286046999.4,N
1609006255.1,286046997.7,N
1609006275.9,286046997.9,N
1609006295.7,286046995.0,Y
1609006315.5,286046996.7,P
1609006335.4,286046997.0,P
1609006355.2,286046997.0,P
1609006375.0,286046997.1,Y
1609006375.9,286046997.1,P
1609006395.8,286047001.2,P
1609006415.6,286047000.2,N
1609006435.4,286046998.3,N
1609006455.3,286047000.3,N
1609006475.1,286047000.5,N
1609006476.0,286047000.5,N
1609006495.8,286046998.1,N
1609006515.7,286046998.5,N
1609006535.5,286046999.0,N
1609006555.3,286046998.8,N
1609006575.2,286046999.4,N
1609006595.9,286046998.3,N
1609006615.7,286046999.0,N
1609006635.6,286046998.7,N
1609006655.4,286046999.6,N
1609006675.2,286047000.8,N
1609006695.1,286046998.2,N
1609006696.0,286046998.2,N
1609006715.8,286046998.2,N
1609006735.6,286046999.3,N
1609006755.5,286046998.3,N
1609006775.3,286046996.6,Y
1609006795.1,286046996.5,P
1609006815.9,286046999.3,N
1609006835.7,286046996.5,N
1609006855.5,286046999.6,N
1609006875.4,286046999.1,N
1609006895.2,286046996.9,N
1609006915.0,286046999.2,N
1609006915.9,286046999.2,N
1609006935.8,286046997.8,N
1609006955.6,286046995.7,Y
1609006975.4,286046996.5,P
1609006995.3,286046996.8,P
1609007015.1,286046996.8,P
1609007016.0,286046996.8,Y
1609007035.8,286047000.6,P
1609007055.7,286047001.1,N
1609007075.5,286046998.2,N
1609007095.3,286047000.2,N
1609007115.2,286047001.0,N
1609007135.9,286046998.6,N
1609007155.7,286047001.1,N
1609007175.6,286046998.4,N
1609007195.4,286046999.5,N
1609007215.2,286046999.6,N
1609007235.1,286046998.8,N
1609007236.0,286046998.8,N
1609007255.8,286046998.9,N
1609007275.6,286046998.3,N
1609007295.5,286047000.8,N
1609007315.3,286046997.0,N
1609007335.1,286046999.6,N
1609007355.9,286046999.0,N
1609007375.7,286046998.6,N
1609007395.5,286046998.5,N
1609007415.4,286046999.1,N
1609007435.2,286046998.8,N
1609007455.0,286046999.2,N
1609007455.9,286046999.2,N
1609007475.8,286046998.7,N
1609007495.6,286046999.0,N
1609007515.4,286046999.5,N
1609007535.2,286046999.1,N
1609007555.1,286046996.9,Y
1609007556.0,286046996.9,P
1609007575.8,286046998.8,N
1609007595.7,286047001.2,N
1609007615.5,286047000.6,N
1609007635.3,286047000.8,N
1609007655.2,286047000.4,N
1609007675.9,286047000.2,N
1609007695.7,286047000.9,N
1609007715.6,286047001.1,N
1609007735.4,286047000.0,N
1609007755.2,286046998.1,N
1609007775.1,286047000.6,N
1609007776.0,286047000.6,N
1609007795.8,286047000.0,N
1609007815.6,286047002.3,N
1609007835.5,286047003.5,N
1609007855.3,286047004.0,N
1609007875.1,286047003.5,N
1609007895.9,286047003.9,N
1609007915.7,286047003.5,N
1609007935.5,286047003.0,N
1609007955.4,286047003.3,N
1609007975.2,286047003.6,N
1609007995.0,286047003.4,N
1609007995.9,286047003.4,N
1609008015.8,286047004.3,N
1609008035.6,286047004.0,N
1609008055.4,286047003.7,N
1609008075.3,286047003.5,N
1609008095.1,286047005.6,N
1609008096.0,286047005.6,N
1609008115.8,286047003.7,N
1609008135.7,286047005.5,N
1609008155.5,286047005.5,N
1609008175.3,286047007.6,Y
1609008195.2,286047003.2,P
1609008215.9,286047003.1,P
1609008235.7,286047003.2,P
1609008255.6,286047004.0,Y
1609008275.4,286047002.7,P
1609008295.2,286046999.8,N
1609008315.1,286047003.9,N
1609008316.0,286047003.9,N
1609008335.8,286047002.3,N
1609008355.6,286047004.4,Y
1609008375.5,286047000.8,P
1609008395.3,286047000.4,N
1609008415.1,286046999.8,N
1609008435.9,286047002.5,N
1609008455.7,286047004.2,Y
1609008475.5,286047001.8,P
1609008495.4,286047001.9,P
1609008515.2,286047001.3,P
1609008535.0,286047002.2,Y
1609008535.9,286047002.2,P
1609008555.8,286047000.7,N
1609008575.6,286047000.9,N
1609008595.4,286047002.6,Y
1609008615.3,286047000.9,P
1609008635.1,286046998.5,P
1609008636.0,286046998.5,N
1609008655.8,286046998.7,N
1609008675.7,286047000.7,N
1609008695.5,286047000.0,N
1609008715.3,286046999.9,N
1609008735.2,286047000.4,N
1609008755.9,286046999.9,N
1609008775.7,286046999.8,N
1609008795.6,286047002.3,N
1609008815.4,286047001.5,N
1609008835.2,286047003.5,Y
1609008855.1,286047004.3,P
1609008856.0,286047004.3,N
1609008875.8,286047003.5,N
1609008895.6,286047005.9,Y
1609008915.5,286047002.8,P
1609008935.3,286047002.3,P
1609008955.1,286047002.0,P
1609008975.9,286047004.4,Y
1609008995.7,286047002.2,P
1609009015.5,286047002.7,P
1609009035.4,286046999.9,N
1609009055.2,286047000.1,N
1609009075.0,286047002.1,N
1609009075.9,286047002.1,N
1609009095.8,286047003.6,Y
1609009115.6,286047001.9,P
1609009135.4,286047002.2,P
1609009155.3,286047001.6,P
1609009175.1,286047005.9,Y
1609009176.0,286047005.9,P
1609009195.8,286047003.6,N
